Location: Igri�s
(42.2144°N, 0.4320°W)
Time: 16:35:01
(UTC+00:00)

Cosmos 1812 - Pass Details

Date: 13 August 2020
Orbit: 517 x 521 km, 82.5° (Epoch: 20 September)

Event Time Altitude Azimuth Distance (km) Brightness Sun altitude
Rises 19:43:08 0° 354° (N) 2,648 6.8 -7.3°
Reaches altitude 10° 19:45:17 10° 358° (N) 1,756 5.8 -7.7°
Maximum altitude 19:49:07 66° 81° (E) 569 2.7 -8.3°
Drops below altitude 10° 19:52:55 10° 164° (SSE) 1,742 5.0 -8.9°
Enters shadow 19:54:26 - 166° (SSE) 2,366 5.7 -9.2°
